User: anonymous   Login
Location: B?jaj?g
(11.7167°N, 92.6667°E)
Time: 05:38:49
(UTC+00:00)
Language:

Cosmos 1066 Rocket - Orbit

View from above orbital plane
View from above orbital plane
View from above satellite
View from above satellite

Ground track
Ground track

The orbit data is extracted from the following two-line orbital elements,

1 11166U 78121B   20333.60689910 +.00000099 +00000-0 +45360-4 0  9994
2 11166 081.2416 027.3749 0065208 274.7890 084.5839 14.13766175161825
Epoch (UTC): 28 November 2020 14:33:56
Eccentricity: 0.0065208
inclination: 81.2416°
perigee height: 799 km
apogee height: 893 km
right ascension of ascending node: 27.3749°
argument of perigee: 274.7890°
revolutions per day: 14.13766175
mean anomaly at epoch: 84.5839°
orbit number at epoch: 16182

The dashed part of the orbit path shows where the satellite is in the earth's shadow,  

DLR